This is the latest recevied weather packets stored in our database for station/object HF3P-11. If no packets are shown the sender has not sent any weather packets the latest 10 day(s).
| Time | Temp. | Humidity | Pressure | Rain* | Wind** | Luminosity | Snow |
|---|---|---|---|---|---|---|---|
| 1787953800 | 21.67° C | 58% | 1003.4 hPa | 0 mm | - | - | - |
| 1787953492 | 21.67° C | 58% | 1003.4 hPa | 0 mm | - | - | - |
| 1787953201 | 21.67° C | 57% | 1003.3 hPa | 0 mm | - | - | - |
| 1787952901 | 21.67° C | 57% | 1003.4 hPa | 0 mm | - | - | - |
| 1787952593 | 22.22° C | 56% | 1003.4 hPa | 0 mm | - | - | - |
| 1787952301 | 22.22° C | 56% | 1003.5 hPa | 0 mm | - | - | - |
| 1787952001 | 22.22° C | 55% | 1003.5 hPa | 0 mm | - | - | - |
| 1787951693 | 22.22° C | 55% | 1003.6 hPa | 0 mm | - | - | - |
| 1787951394 | 22.22° C | 55% | 1003.7 hPa | 0 mm | - | - | - |
| 1787951101 | 22.22° C | 54% | 1003.4 hPa | 0 mm | - | - | - |
| 1787950801 | 22.22° C | 54% | 1003.6 hPa | 0 mm | - | - | - |
| 1787950494 | 23.33° C | 54% | 1003.5 hPa | 0 mm | - | - | - |
| 1787950193 | 22.22° C | 54% | 1003.7 hPa | 0 mm | - | - | - |
| 1787949894 | 22.22° C | 54% | 1003.5 hPa | 0 mm | - | - | - |
| 1787949601 | 22.22° C | 54% | 1003.5 hPa | 0 mm | - | - | - |
| 1787949294 | 22.22° C | 54% | 1003.4 hPa | 0 mm | - | - | - |
| 1787949003 | 22.22° C | 54% | 1003.4 hPa | 0 mm | - | - | - |
| 1787948702 | 22.22° C | 53% | 1003.4 hPa | 0 mm | - | - | - |
| 1787948393 | 22.22° C | 53% | 1003.5 hPa | 0 mm | - | - | - |
| 1787948102 | 22.78° C | 53% | 1003.4 hPa | 0 mm | - | - | - |
| 1787947793 | 22.78° C | 53% | 1003.4 hPa | 0 mm | - | - | - |
| 1787947502 | 22.22° C | 53% | 1003.5 hPa | 0 mm | - | - | - |
| 1787947193 | 22.22° C | 53% | 1003.8 hPa | 0 mm | - | - | - |
| 1787946902 | 22.22° C | 53% | 1003.7 hPa | 0 mm | - | - | - |
| 1787946593 | 22.78° C | 53% | 1003.9 hPa | 0 mm | - | - | - |
* Rain latest hour (hover to see other rain measurements)
** Current wind speed in m/s (hover to see current wind gust speed)